CW4489 Marathon FL US current weather conditions

sailwx.info

Wind from 078 at 1 knots gusting 2

Air temperature 28.9° C
Dewpoint 25.3° C

Last reported at 2015-Jul-07 07:40 UTC.
Time now 2015-Jul-07 08:55 UTC

Location: N 24°44' W 081°02'.
View on Google Maps.

See reports from other nearby stations

  
Tides and Currents Weather Stations Pressure Air Temp Water Temp Dewpoint Dewpoint Depression Visibility Wind Speed Wind Dir Waves Ship Positions
date/time (UTC)wind fromknots sea level pressurealtimeterstation pressurevisibilityair tempwater tempwave heightnotes
2015-Jul-07 07:40 078 1 gusting 2 28.9
2015-Jul-07 07:30 115 0 gusting 4 28.9
2015-Jul-07 07:10 097 2 gusting 3 28.9
2015-Jul-07 07:00 074 28.9
2015-Jul-07 06:20 090 0 gusting 4 28.9
2015-Jul-07 06:00 082 2 gusting 5 28.9
2015-Jul-07 05:50 108 28.9
2015-Jul-07 05:30 098 1 gusting 3 28.9
2015-Jul-07 05:20 082 0 gusting 6 28.9
2015-Jul-07 05:10 086 4 gusting 6 28.9
2015-Jul-07 05:00 079 0 gusting 4 28.9
2015-Jul-07 04:50 079 28.9
2015-Jul-07 04:30 077 28.9
2015-Jul-07 04:20 096 1 gusting 3 28.9
2015-Jul-07 04:10 053 28.9
2015-Jul-07 04:00 055 2 gusting 3 28.9
2015-Jul-07 03:50 067 3 gusting 3 28.9
2015-Jul-07 03:30 086 1 gusting 3 28.9
2015-Jul-07 03:10 059 1 gusting 3 28.9
2015-Jul-07 03:00 071 0 gusting 2 28.9
2015-Jul-07 02:40 056 28.9
2015-Jul-07 02:30 074 2 gusting 2 28.9
2015-Jul-07 02:10 080 0 gusting 2 28.9
2015-Jul-07 01:50 061 28.9
2015-Jul-07 01:30 089 28.9
2015-Jul-07 01:20 076 2 gusting 2 28.9
2015-Jul-07 01:00 079 1 gusting 3 29.4
2015-Jul-07 00:50 114 29.4
2015-Jul-07 00:40 079 29.4
2015-Jul-07 00:20 061 1 gusting 4 30.0
2015-Jul-06 23:50 122 30.6
2015-Jul-06 23:40 083 0 gusting 4 30.6
2015-Jul-06 23:30 074 30.6
2015-Jul-06 23:20 091 31.1
2015-Jul-06 23:00 073 0 gusting 2 31.1
2015-Jul-06 22:40 055 30.6
2015-Jul-06 22:20 044 2 gusting 5 30.6
2015-Jul-06 22:00 036 30.6
2015-Jul-06 21:50 046 2 gusting 7 30.6
2015-Jul-06 21:40 082 1 gusting 7 30.0
2015-Jul-06 21:30 027 6 gusting 10 30.6
2015-Jul-06 21:20 078 2 gusting 6 31.7
2015-Jul-06 21:10 067 3 gusting 8 32.8
2015-Jul-06 21:00 081 0 gusting 6 32.8
2015-Jul-06 20:50 091 4 gusting 8 33.3
2015-Jul-06 20:40 073 1 gusting 8 33.3
2015-Jul-06 20:30 074 1 gusting 5 33.3
2015-Jul-06 20:20 095 2 gusting 5 33.3
2015-Jul-06 20:10 084 1 gusting 3 33.3
2015-Jul-06 20:00 076 32.8
2015-Jul-06 19:30 098 6 gusting 6 33.9
2015-Jul-06 19:20 136 33.3
2015-Jul-06 19:10 092 3 gusting 6 33.3
2015-Jul-06 19:00 085 2 gusting 7 32.8
2015-Jul-06 18:50 138 4 gusting 7 32.8
2015-Jul-06 18:40 121 2 gusting 5 33.3
2015-Jul-06 18:20 075 0 gusting 5 33.9
2015-Jul-06 18:10 105 33.3
2015-Jul-06 17:50 103 0 gusting 5 33.3
2015-Jul-06 17:40 107 2 gusting 5 33.3
2015-Jul-06 17:30 144 4 gusting 5 33.3
2015-Jul-06 17:10 138 2 gusting 5 33.3
2015-Jul-06 17:00 075 1 gusting 5 33.3
2015-Jul-06 16:50 124 1 gusting 6 33.3
2015-Jul-06 16:40 094 0 gusting 6 32.8
2015-Jul-06 16:30 113 2 gusting 5 33.3
2015-Jul-06 16:20 123 1 gusting 5 33.3
2015-Jul-06 15:30 121 32.2
2015-Jul-06 15:20 139 4 gusting 6 32.2
2015-Jul-06 15:10 132 4 gusting 4 32.2
2015-Jul-06 15:00 100 0 gusting 5 31.7
2015-Jul-06 14:50 153 1 gusting 5 31.7
2015-Jul-06 14:40 121 5 gusting 6 31.1
2015-Jul-06 14:30 129 4 gusting 8 30.6
2015-Jul-06 14:20 107 1 gusting 10 30.6
2015-Jul-06 14:10 146 3 gusting 10 30.6
2015-Jul-06 13:50 136 4 gusting 12 30.0
2015-Jul-06 13:40 127 3 gusting 12 30.0
2015-Jul-06 13:20 097 4 gusting 8 30.0
2015-Jul-06 13:10 144 8 gusting 12 30.0
2015-Jul-06 12:50 107 6 gusting 12 30.0
2015-Jul-06 12:40 126 8 gusting 8 29.4
2015-Jul-06 12:30 128 5 gusting 10 29.4
2015-Jul-06 12:20 107 8 gusting 11 29.4
2015-Jul-06 12:10 133 6 gusting 8 29.4
2015-Jul-06 12:00 160 7 gusting 9 29.4
2015-Jul-06 11:30 098 2 gusting 11 28.9
2015-Jul-06 11:20 121 2 gusting 9 28.3
2015-Jul-06 11:10 121 3 gusting 10 28.3
2015-Jul-06 11:00 091 3 gusting 6 28.3
2015-Jul-06 10:40 091 0 gusting 6 27.8
2015-Jul-06 10:30 111 1 gusting 6 27.8
2015-Jul-06 10:20 112 0 gusting 6 27.2
2015-Jul-06 10:10 088 3 gusting 6 27.2
2015-Jul-06 10:00 064 27.2
2015-Jul-06 09:40 087 1 gusting 3 27.2
2015-Jul-06 09:30 072 26.7
2015-Jul-06 09:20 096 2 gusting 6 27.2
2015-Jul-06 09:10 065 2 gusting 8 27.2
2015-Jul-06 09:00 031 6 gusting 8 27.2
2015-Jul-06 08:50 061 1 gusting 9 26.7
2015-Jul-06 08:00 026 6 gusting 12 27.2
2015-Jul-06 07:40 049 2 gusting 8 27.8
2015-Jul-06 07:20 046 6 gusting 10 28.3
2015-Jul-06 07:10 026 6 gusting 6 28.9
2015-Jul-06 06:50 065 28.9
2015-Jul-06 06:40 068 28.9
2015-Jul-06 06:30 061 28.9
2015-Jul-06 06:10 069 28.9
2015-Jul-06 05:40 074 28.9
2015-Jul-06 05:30 059 28.9
2015-Jul-06 05:10 074 0 gusting 1 28.9
2015-Jul-06 04:30 067 0 gusting 2 29.4
2015-Jul-06 04:00 070 29.4
2015-Jul-06 03:50 088 0 gusting 3 29.4
2015-Jul-06 03:20 086 2 gusting 4 29.4
2015-Jul-06 03:00 105 1 gusting 5 29.4
2015-Jul-06 02:40 078 0 gusting 3 29.4
2015-Jul-06 02:30 104 29.4
2015-Jul-06 01:40 118 1 gusting 6 29.4
2015-Jul-06 01:30 117 29.4
2015-Jul-06 01:20 082 0 gusting 6 29.4
2015-Jul-06 01:10 113 5 gusting 6 29.4
2015-Jul-06 00:40 108 1 gusting 6 30.0
2015-Jul-06 00:30 128 30.0
2015-Jul-06 00:20 111 0 gusting 4 30.0
2015-Jul-06 00:10 079 3 gusting 4 30.0
2015-Jul-06 00:00 111 3 gusting 6 30.0
2015-Jul-05 23:50 101 2 gusting 6 30.0
2015-Jul-05 23:40 097 2 gusting 7 30.0
2015-Jul-05 23:30 129 1 gusting 6 30.0
2015-Jul-05 23:20 107 6 gusting 6 30.0
2015-Jul-05 23:10 086 2 gusting 5 30.6
2015-Jul-05 23:00 113 0 gusting 7 30.6
2015-Jul-05 22:50 083 2 gusting 6 31.1
2015-Jul-05 22:40 084 2 gusting 6 31.1
2015-Jul-05 22:30 088 3 gusting 6 31.7
2015-Jul-05 22:20 097 2 gusting 6 31.7
2015-Jul-05 21:40 075 2 gusting 9 31.7
2015-Jul-05 21:20 122 2 gusting 8 32.2
2015-Jul-05 21:10 128 1 gusting 7 32.2
2015-Jul-05 20:50 113 3 gusting 6 32.2
2015-Jul-05 20:30 068 3 gusting 7 32.8
2015-Jul-05 20:10 117 2 gusting 6 32.8
2015-Jul-05 20:00 095 0 gusting 6 32.8
2015-Jul-05 19:40 092 2 gusting 7 32.8
2015-Jul-05 19:30 079 3 gusting 8 33.3
2015-Jul-05 19:20 111 2 gusting 6 33.3
2015-Jul-05 19:10 097 6 gusting 6 32.8
2015-Jul-05 19:00 071 3 gusting 6 33.3
2015-Jul-05 18:40 082 4 gusting 6 33.3
2015-Jul-05 18:20 074 2 gusting 6 33.3
2015-Jul-05 18:10 096 0 gusting 6 32.8
2015-Jul-05 17:20 080 0 gusting 6 32.8
2015-Jul-05 17:10 065 2 gusting 6 33.3
2015-Jul-05 17:00 128 1 gusting 5 33.3
2015-Jul-05 16:50 111 0 gusting 6 33.3
2015-Jul-05 16:30 099 0 gusting 6 33.3
2015-Jul-05 16:20 101 0 gusting 4 33.3
2015-Jul-05 16:10 097 0 gusting 3 32.8
2015-Jul-05 16:00 125 0 gusting 7 33.3
2015-Jul-05 15:40 111 0 gusting 6 32.8
2015-Jul-05 15:30 121 0 gusting 6 32.8
2015-Jul-05 15:20 143 2 gusting 6 33.3
2015-Jul-05 15:00 121 1 gusting 5 32.2
2015-Jul-05 14:50 065 2 gusting 6 32.2
2015-Jul-05 14:40 117 0 gusting 5 32.2
2015-Jul-05 14:10 095 1 gusting 6 31.7
2015-Jul-05 14:00 094 3 gusting 6 31.1
2015-Jul-05 13:50 071 2 gusting 8 31.1
2015-Jul-05 13:40 118 1 gusting 6 31.1
2015-Jul-05 13:20 113 2 gusting 6 30.6
2015-Jul-05 13:10 077 1 gusting 5 30.6
2015-Jul-05 12:50 133 2 gusting 5 30.6
2015-Jul-05 12:40 109 1 gusting 3 30.0
2015-Jul-05 12:30 121 3 gusting 6 30.0
2015-Jul-05 11:40 126 4 gusting 6 28.9
2015-Jul-05 11:30 134 1 gusting 8 28.9
2015-Jul-05 11:20 115 2 gusting 7 28.9
2015-Jul-05 11:10 137 4 gusting 9 28.9
2015-Jul-05 11:00 119 5 gusting 7 28.9
2015-Jul-05 10:50 114 2 gusting 7 28.9
2015-Jul-05 10:40 164 6 gusting 8 28.9
2015-Jul-05 09:50 138 2 gusting 6 28.9
2015-Jul-05 09:40 121 3 gusting 8 28.9
2015-Jul-05 09:30 085 2 gusting 7 28.9
2015-Jul-05 09:20 103 2 gusting 6 28.9
2015-Jul-05 09:10 131 4 gusting 6 28.9
2015-Jul-05 08:50 118 5 gusting 6 28.9
2015-Jul-05 08:40 118 1 gusting 6 28.9
2015-Jul-05 08:30 126 2 gusting 6 28.9
2015-Jul-05 08:20 111 2 gusting 6 28.9
2015-Jul-05 08:10 132 2 gusting 5 28.9
2015-Jul-05 08:00 139 1 gusting 5 28.9